Philip, SD

10:43 PM MDT on May 25, 2017 (GMT -0600)
Philip

Weather History for KPHP - February, 2012

Change the Weather History Date:

Thursday, February 2, 2012

  Actual Average Record
Temperature  
Mean Temperature 28 °F 24 °F  
Max Temperature 42 °F 36 °F 68 °F (1992)
Min Temperature 13 °F 11 °F -20 °F (1989)
Degree Days  
Heating Degree Days 37 42  
Month to date heating degree days 67 84  
Since 1 July heating degree days 3682 4349  
Cooling Degree Days 0 0  
Month to date cooling degree days 0 0  
Year to date cooling degree days 0 0  
Moisture  
Dew Point 19 °F    
Average Humidity 68    
Maximum Humidity 92    
Minimum Humidity 43    
Precipitation  
Precipitation 0.00 in 0.01 in 0.30 in (2003)
Month to date precipitation 0.00 0.02  
Year to date precipitation 0.21 0.32  
Sea Level Pressure  
Sea Level Pressure 30.20 in    
Wind  
Wind Speed 4 mph (WNW)    
Max Wind Speed 14 mph    
Max Gust Speed 16 mph    
Visibility 10 miles    
Events      
T = Trace of Precipitation, MM = Missing Value Source: NWS Daily Summary

Daily Weather History Graph

Daily Weather History Graph

Search for Another Location

Airport or City:

Trip Planner

Search our weather history database for the weather conditions in past years. The results will help you decide how hot, cold, wet, or windy it might be!

Date:

Astronomy

Feb. 02, 2012 Rise Set
Actual Time 7:03 AM MST 4:57 PM MST
Civil Twilight 6:32 AM MST 5:28 PM MST
Nautical Twilight 5:58 AM MST 6:02 PM MST
Astronomical Twilight 5:24 AM MST 6:36 PM MST
Moon 12:06 PM MST (2/2) 2:51 AM MST (2/2)
Length of Visible Light 10h 55m
Length of Day
9h 54m
Waxing Gibbous, 74% of the Moon is Illuminated
Feb 2
Waxing Gibbous
Feb 7
Full
Feb 14
Last Quarter
Feb 21
New
Feb 29
First Quarter

Hourly Weather History & Observations

Time (MST) Temp. Windchill Dew Point Humidity Pressure Visibility Wind Dir Wind Speed Gust Speed Precip Events Conditions
12:55 AM 21.0 °F - 15.1 °F 78% 30.13 in 10.0 mi Calm Calm - N/A   Clear
1:55 AM 18.0 °F - 14.0 °F 84% 30.14 in 10.0 mi Calm Calm - N/A   Clear
2:55 AM 16.0 °F - 12.0 °F 84% 30.13 in 10.0 mi Calm Calm - N/A   Clear
3:55 AM 17.1 °F 11.7 °F 12.9 °F 84% 30.13 in 10.0 mi SE 3.5 mph - N/A   Clear
4:55 AM 19.9 °F 12.1 °F 16.0 °F 85% 30.13 in 10.0 mi East 5.8 mph - N/A   Clear
5:55 AM 19.0 °F - 15.1 °F 85% 30.14 in 10.0 mi Calm Calm - N/A   Clear
6:55 AM 14.0 °F 6.5 °F 10.9 °F 88% 30.17 in 10.0 mi West 4.6 mph - N/A   Clear
7:55 AM 17.1 °F 10.0 °F 14.0 °F 88% 30.18 in 10.0 mi West 4.6 mph - N/A   Clear
8:55 AM 24.1 °F 19.7 °F 19.9 °F 84% 30.19 in 10.0 mi WNW 3.5 mph - N/A   Clear
10:55 AM 35.1 °F 32.2 °F 24.1 °F 64% 30.18 in 10.0 mi SW 3.5 mph - N/A   Clear
11:55 AM 37.9 °F - 24.1 °F 57% 30.17 in 10.0 mi Calm Calm - N/A   Clear
12:55 PM 41.0 °F - 24.1 °F 51% 30.17 in 10.0 mi Calm Calm - N/A   Clear
1:55 PM 42.1 °F 38.4 °F 23.0 °F 47% 30.17 in 10.0 mi NNW 5.8 mph - N/A   Mostly Cloudy
2:55 PM 42.1 °F 39.2 °F 21.9 °F 45% 30.18 in 10.0 mi WNW 4.6 mph - N/A   Overcast
3:55 PM 41.0 °F 39.0 °F 21.0 °F 45% 30.19 in 10.0 mi NNW 3.5 mph - N/A   Mostly Cloudy
4:55 PM 37.0 °F 34.5 °F 21.9 °F 54% 30.21 in 10.0 mi NE 3.5 mph - N/A   Mostly Cloudy
5:55 PM 35.1 °F - 21.0 °F 57% 30.23 in 10.0 mi Calm Calm - N/A   Clear
6:55 PM 30.0 °F 26.5 °F 19.9 °F 66% 30.26 in 10.0 mi West 3.5 mph - N/A   Clear
7:55 PM 30.9 °F 20.7 °F 21.0 °F 67% 30.29 in 10.0 mi WNW 13.8 mph - N/A   Clear
8:55 PM 28.0 °F 22.8 °F 19.9 °F 72% 30.30 in 10.0 mi NW 4.6 mph - N/A   Clear
9:55 PM 24.1 °F 17.0 °F 18.0 °F 77% 30.32 in 10.0 mi West 5.8 mph - N/A   Clear
10:55 PM 21.9 °F 17.2 °F 19.0 °F 89% 30.32 in 10.0 mi SW 3.5 mph - N/A   Clear
11:55 PM 21.0 °F 10.6 °F 17.1 °F 85% 30.33 in 10.0 mi West 9.2 mph - N/A   Clear